Regional Weather Roundup
Issued by NWS Little Rock, AR

Home | Current Version | Previous Version | Text Only | Print | Product List | Glossary On
Versions: 1 2 3 4 5 6 7 8 9 10 11 12 13 14 15 16 17 18 19 20 21 22 23 24 25 26 27
000
ASUS44 KLZK 251505
RWRLZK

WEATHER ROUNDUP FOR ARKANSAS
NATIONAL WEATHER SERVICE LITTLE ROCK AR
1000 AM CDT SAT OCT 25 2014

NOTE: "FAIR" INDICATES FEW OR NO CLOUDS BELOW 12,000 FEET WITH NO
SIGNIFICANT WEATHER AND/OR OBSTRUCTIONS TO VISIBILITY.

ARZ001-003-010-029-251600-
NORTHWEST ARKANSAS

CITY           SKY/WX    TMP DP  RH WIND       PRES   REMARKS
FAYETTEVILLE   SUNNY     71  61  70 SW9       30.13R
FORT SMITH     FOG       61  59  93 CALM      30.12S VSB 3/4
HARRISON       SUNNY     73  60  63 W10       30.11S
BENTONVILLE    SUNNY     66  59  77 W6        30.13S
ROGERS         SUNNY     68  59  73 SW10      30.14R
SILOAM SPGS    SUNNY     68  57  68 SW10      30.14R
HIGHFILL       SUNNY     67  61  81 SW8       30.12S
SPRINGDALE     SUNNY     68  61  77 SW9       30.15R
$$

ARZ004-005-016-251600-
NORTH CENTRAL ARKANSAS

CITY           SKY/WX    TMP DP  RH WIND       PRES   REMARKS
BATESVILLE     SUNNY    N/A N/A N/A W5        30.08F
FLIPPIN        SUNNY     64  55  72 CALM      30.10F
MTN HOME       SUNNY     67  61  81 W5        30.09S
$$

ARZ040-041-251600-
WEST CENTRAL ARKANSAS

CITY           SKY/WX    TMP DP  RH WIND       PRES   REMARKS
MENA           SUNNY     73  61  64 CALM      30.17R
MOUNT IDA      SUNNY     69  63  81 CALM      30.13R
$$

ARZ009-017-025-026-028-251600-
NORTHEAST ARKANSAS

CITY           SKY/WX    TMP DP  RH WIND       PRES   REMARKS
CORNING        FAIR      64  59  82 W6        30.09R
JONESBORO      SUNNY     68  59  73 SW6       30.08S
NEWPORT        SUNNY     70  62  75 SW5       30.10R
WALNUT RIDGE   SUNNY     66  59  77 SW6       30.08R
BLYTHEVILLE    SUNNY     68  60  75 SW6       30.09R
$$

ARZ022-023-033-042-044-251600-
CENTRAL ARKANSAS

CITY           SKY/WX    TMP DP  RH WIND       PRES   REMARKS
LITTLE ROCK    SUNNY     69  59  70 SW10      30.13S
N LITTLE ROCK  SUNNY     71  63  74 W7        30.13S
JACKSONVILLE   SUNNY     69  61  73 W5        30.12R
SEARCY         SUNNY     66  60  81 S3        30.12S
HOT SPRINGS    SUNNY     66  60  81 W3        30.15S
RUSSELLVILLE   SUNNY     65  60  84 CALM      30.12S
$$

ARZ036-251600-
EAST ARKANSAS

CITY           SKY/WX    TMP DP  RH WIND       PRES   REMARKS
WEST MEMPHIS   SUNNY     67  60  78 W6        30.10R
$$

ARZ050-053-066-070-073-251600-
SOUTHWEST ARKANSAS

CITY           SKY/WX    TMP DP  RH WIND       PRES   REMARKS
ARKADELPHIA    FAIR      64  61  90 CALM      30.16S
CAMDEN         SUNNY     66  55  68 CALM      30.17S
TEXARKANA      SUNNY     70  59  68 W8        30.17R
EL DORADO      SUNNY     67  58  72 SW3       30.18R
DE QUEEN       SUNNY     65  61  87 CALM      30.15S
$$

ARZ056-057-069-251600-
SOUTHEAST ARKANSAS

CITY           SKY/WX    TMP DP  RH WIND       PRES   REMARKS
PINE BLUFF     SUNNY     68  57  68 W10       30.14S
STUTTGART      SUNNY     70  59  68 W12       30.13S
MONTICELLO     SUNNY     66  56  70 W8        30.16S

$$





USA.gov is the U.S. government's official web portal to all federal, state and local government web resources and services.